NOAA 16 DEB, 41307

Orbit data source: Space-Track

NOAA 16 DEB, 41307 is space debris in SSO originally from a launch on Thu, 21 Sep 2000 UTC launched from the Air Force Western Test Range (AFWTR). Debris objects in space refer to the collection of defunct objects orbiting the Earth. Examples of debris include non-operational satellites, rocket bodies, and fragments generated from explosions, collisions, or faulty payload assembly.

Loading next visibility...
Identifier
41307, 2000-055HK
Orbit
SSO
Country
Flag of USUS
Related business
Manufacturer
Unknown
Mission
Spacecraft
Bus & Motor
Unknown
Mass
Unknown
Launch date (UTC)
2000-09-21 (26 years ago)
Launch vehicle
Unknown
Launch site
Air Force Western Test Range (AFWTR)
Object type
Payload
Rocket body
Debris
Shape & HBR
Unknown shape, 0.1 m
Radar Cross Section
Small (<0.1 m²)

Expand to show TLE details & history
Last TLE update: 15 hours ago

TLE from 15 hours ago
0 NOAA 16 DEB
1 41307U 00055HK  26131.00588484  .00062972  00000-0  40473-2 0  9991
2 41307  98.9024 329.0568 0002583 226.2147 133.8864 15.08150797539940
Epoch: 2026-05-11T00:08Z
TLE epoch observation values (Epoch: 2026-05-11T00:08:28.450Z)
Latitude
0.00003°
Longitude
98.13744°
Altitude
546.118 km
Speed
7.588 km/s
True Right ascension
21h 56m 13s
True Declination
0° 00' 00"
Sunlit
Object was in daylight at epoch
Visualization orbit readout
Latitude
Unknown
Longitude
Unknown
Altitude
Unknown
Speed
Unknown
Apparent Right ascension
Unknown
Apparent Declination
Unknown
Sunlit
N/A
Visualization observer readout
Local Sidereal Time
23:34:08
Azimuth
Unknown
Elevation
Unknown
Doppler factor
Unknown
Orbital elements
Apogee altitude
540.689 km
Perigee altitude
537.116 km
Semi-major axis
6,917.039 km
Eccentricity
0.00026
Inclination
98.9024°
RAAN
329.0568°
Arg. of periapsis
226.2147°
True anomaly
133.90773°
Mean anomaly
133.8864°
Eccentric anomaly
133.89706°
Mean motion
3.77279 °/min
Orbital period
95.42 mins
BSTAR
0.0040473
Loading maneuver chart data...
Computing Atmospheric mass density...
Loading historical data...
Loading historical data...
Loading historical data...
Loading historical data...
Loading historical data...
Loading historical data...
Loading historical data...

Documentation

Showing up to 5 results
|